| time (UTC) | temp C | wind direction | speed KPH | gust KPH | rain 1hr cm | rain 24hr cm | rain mn cm | humidity % | barometer mb |
| 20260509154009 | 12 | 64 | 4.8 | 0.0 | 0.00 | 0.00 | 0.00 | 96 | 1012.5 |
| 20260509153509 | 12 | 63 | 3.2 | 0.0 | 0.00 | 0.00 | 0.00 | 96 | 1012.5 |
| 20260509153016 | 12 | 79 | 3.2 | 0.0 | 0.00 | 0.00 | 0.00 | 96 | 1012.5 |
| 20260509152509 | 12 | 69 | 3.2 | 0.0 | 0.00 | 0.00 | 0.00 | 96 | 1012.5 |
| 20260509152009 | 12 | 34 | 3.2 | 0.0 | 0.00 | 0.00 | 0.00 | 96 | 1012.5 |
| 20260509151509 | 12 | 61 | 3.2 | 0.0 | 0.00 | 0.00 | 0.00 | 96 | 1012.5 |
| 20260509151011 | 12 | 132 | 3.2 | 0.0 | 0.00 | 0.00 | 0.00 | 96 | 1012.4 |
| 20260509150508 | 12 | 50 | 3.2 | 0.0 | 0.00 | 0.00 | 0.00 | 96 | 1012.4 |
| 20260509150010 | 12 | 91 | 1.6 | 0.0 | 0.00 | 0.00 | 0.00 | 96 | 1012.4 |
| 20260509145508 | 12 | 26 | 1.6 | 0.0 | 0.00 | 0.00 | 0.00 | 96 | 1012.4 |
| 20260509145008 | 12 | 27 | 3.2 | 0.0 | 0.00 | 0.00 | 0.00 | 96 | 1012.4 |
| 20260509144507 | 12 | 24 | 4.8 | 0.0 | 0.00 | 0.00 | 0.00 | 96 | 1012.4 |
| 20260509144007 | 12 | 21 | 3.2 | 0.0 | 0.00 | 0.00 | 0.00 | 96 | 1012.3 |
| 20260509143509 | 12 | 67 | 1.6 | 0.0 | 0.00 | 0.00 | 0.00 | 96 | 1012.3 |
| 20260509143011 | 12 | 94 | 1.6 | 0.0 | 0.00 | 0.00 | 0.00 | 96 | 1012.3 |
| 20260509142506 | 12 | 30 | 3.2 | 0.0 | 0.00 | 0.00 | 0.00 | 96 | 1012.3 |
| 20260509142007 | 12 | 34 | 3.2 | 0.0 | 0.00 | 0.00 | 0.00 | 96 | 1012.3 |
| 20260509141507 | 12 | 67 | 3.2 | 0.0 | 0.00 | 0.00 | 0.00 | 96 | 1012.3 |
| 20260509141008 | 12 | 90 | 3.2 | 0.0 | 0.00 | 0.00 | 0.00 | 96 | 1012.2 |
| 20260509140506 | 12 | 71 | 3.2 | 0.0 | 0.00 | 0.00 | 0.00 | 96 | 1012.2 |
| 20260509140006 | 12 | 80 | 3.2 | 0.0 | 0.00 | 0.00 | 0.00 | 96 | 1012.2 |
| 20260509135506 | 12 | 26 | 3.2 | 0.0 | 0.00 | 0.00 | 0.00 | 96 | 1012.2 |
| 20260509135006 | 12 | 103 | 3.2 | 0.0 | 0.00 | 0.00 | 0.00 | 96 | 1012.2 |
| 20260509134506 | 12 | 24 | 3.2 | 0.0 | 0.00 | 0.00 | 0.00 | 96 | 1012.2 |
| 20260509134008 | 12 | 31 | 3.2 | 0.0 | 0.00 | 0.00 | 0.00 | 96 | 1012.1 |
| 20260509133506 | 12 | 37 | 3.2 | 0.0 | 0.00 | 0.00 | 0.00 | 96 | 1012.1 |
| 20260509133005 | 12 | 24 | 3.2 | 0.0 | 0.00 | 0.00 | 0.00 | 96 | 1012.1 |
| 20260509132505 | 12 | 55 | 3.2 | 0.0 | 0.00 | 0.00 | 0.00 | 96 | 1011.8 |
| 20260509132006 | 12 | 31 | 3.2 | 0.0 | 0.00 | 0.00 | 0.00 | 96 | 1011.8 |
| 20260509131505 | 12 | 63 | 4.8 | 0.0 | 0.00 | 0.00 | 0.00 | 96 | 1011.8 |
| 20260509131005 | 12 | 73 | 6.4 | 0.0 | 0.00 | 0.00 | 0.00 | 96 | 1011.7 |
| 20260509130505 | 12 | 30 | 4.8 | 0.0 | 0.00 | 0.00 | 0.00 | 96 | 1011.7 |
| 20260509130013 | 12 | 48 | 3.2 | 0.0 | 0.00 | 0.00 | 0.00 | 96 | 1011.5 |
| 20260509125505 | 12 | 69 | 3.2 | 0.0 | 0.00 | 0.00 | 0.00 | 96 | 1011.5 |
| 20260509125004 | 12 | 61 | 4.8 | 0.0 | 0.00 | 0.00 | 0.00 | 96 | 1011.5 |
| 20260509124515 | 12 | 67 | 4.8 | 0.0 | 0.00 | 0.00 | 0.00 | 96 | 1011.6 |
| 20260509124003 | 12 | 22 | 3.2 | 0.0 | 0.00 | 0.00 | 0.00 | 96 | 1011.6 |
| 20260509123504 | 12 | 59 | 3.2 | 0.0 | 0.00 | 0.00 | 0.00 | 96 | 1011.6 |
| 20260509123004 | 12 | 55 | 4.8 | 0.0 | 0.00 | 0.00 | 0.00 | 96 | 1011.7 |
| 20260509122504 | 12 | 88 | 4.8 | 0.0 | 0.00 | 0.00 | 0.00 | 96 | 1011.7 |
| 20260509122002 | 12 | 36 | 3.2 | 0.0 | 0.00 | 0.00 | 0.00 | 96 | 1011.7 |
| 20260509121502 | 12 | 82 | 3.2 | 0.0 | 0.00 | 0.00 | 0.00 | 96 | 1011.4 |
| 20260509121003 | 12 | 55 | 4.8 | 0.0 | 0.00 | 0.00 | 0.00 | 96 | 1011.4 |
| 20260509120501 | 12 | 78 | 1.6 | 0.0 | 0.00 | 0.00 | 0.00 | 96 | 1011.4 |
| 20260509120002 | 12 | 47 | 1.6 | 0.0 | 0.00 | 0.00 | 0.00 | 96 | 1011.5 |
| 20260509115500 | 12 | 25 | 3.2 | 0.0 | 0.00 | 0.00 | 0.00 | 96 | 1011.5 |
| 20260509115002 | 12 | 5 | 3.2 | 0.0 | 0.00 | 0.00 | 0.00 | 96 | 1011.5 |
| 20260509114627 | 12 | 22 | 3.2 | 0.0 | 0.00 | 0.00 | 0.00 | 95 | 1011.5 |
| 20260509114100 | 12 | 49 | 3.2 | 0.0 | 0.00 | 0.00 | 0.00 | 95 | 1011.5 |
| 20260509113600 | 12 | 355 | 3.2 | 0.0 | 0.00 | 0.00 | 0.00 | 95 | 1011.5 |
| 20260509113134 | 12 | 34 | 3.2 | 0.0 | 0.00 | 0.00 | 0.00 | 95 | 1011.5 |
| 20260509112600 | 12 | 51 | 3.2 | 0.0 | 0.00 | 0.00 | 0.00 | 96 | 1011.4 |
| 20260509112058 | 12 | 75 | 1.6 | 0.0 | 0.00 | 0.00 | 0.00 | 95 | 1011.4 |
| 20260509111558 | 12 | 71 | 1.6 | 0.0 | 0.00 | 0.00 | 0.00 | 95 | 1011.4 |
| 20260509111057 | 12 | 92 | 1.6 | 0.0 | 0.00 | 0.00 | 0.00 | 95 | 1011.4 |
| 20260509110557 | 12 | 99 | 1.6 | 0.0 | 0.00 | 0.00 | 0.00 | 95 | 1011.4 |
| 20260509105557 | 12 | 60 | 3.2 | 0.0 | 0.00 | 0.00 | 0.00 | 95 | 1011.4 |
| 20260509105057 | 12 | 62 | 3.2 | 0.0 | 0.00 | 0.00 | 0.00 | 95 | 1011.4 |
| 20260509104557 | 12 | 81 | 3.2 | 0.0 | 0.00 | 0.00 | 0.00 | 95 | 1011.4 |
| 20260509104056 | 12 | 25 | 1.6 | 0.0 | 0.00 | 0.00 | 0.00 | 95 | 1011.5 |
| 20260509103556 | 12 | 124 | 1.6 | 0.0 | 0.00 | 0.00 | 0.00 | 95 | 1011.5 |
| 20260509103107 | 12 | 57 | 3.2 | 0.0 | 0.00 | 0.00 | 0.00 | 95 | 1011.5 |
| 20260509102556 | 12 | 46 | 3.2 | 0.0 | 0.00 | 0.00 | 0.00 | 96 | 1011.5 |
| 20260509102056 | 12 | 34 | 4.8 | 0.0 | 0.00 | 0.00 | 0.00 | 95 | 1011.5 |
| 20260509101602 | 12 | 35 | 4.8 | 0.0 | 0.00 | 0.00 | 0.00 | 95 | 1011.5 |
| 20260509101055 | 12 | 49 | 3.2 | 0.0 | 0.00 | 0.00 | 0.00 | 95 | 1011.6 |
| 20260509100554 | 12 | 40 | 3.2 | 0.0 | 0.00 | 0.00 | 0.00 | 95 | 1011.6 |
| 20260509100054 | 12 | 41 | 3.2 | 0.0 | 0.00 | 0.00 | 0.00 | 95 | 1011.6 |
| 20260509095553 | 12 | 73 | 1.6 | 0.0 | 0.00 | 0.00 | 0.00 | 96 | 1011.7 |
| 20260509095053 | 12 | 5 | 3.2 | 0.0 | 0.00 | 0.00 | 0.00 | 96 | 1011.7 |
| 20260509094559 | 12 | 27 | 3.2 | 0.0 | 0.00 | 0.00 | 0.00 | 96 | 1011.7 |
| 20260509094058 | 12 | 86 | 1.6 | 0.0 | 0.00 | 0.00 | 0.00 | 95 | 1011.9 |
| 20260509093554 | 12 | 53 | 1.6 | 0.0 | 0.00 | 0.00 | 0.00 | 95 | 1011.9 |
| 20260509093053 | 12 | 98 | 1.6 | 0.0 | 0.00 | 0.00 | 0.00 | 95 | 1011.9 |
| 20260509092552 | 12 | 133 | 1.6 | 0.0 | 0.00 | 0.00 | 0.00 | 95 | 1011.9 |
| 20260509092052 | 12 | 118 | 1.6 | 0.0 | 0.00 | 0.00 | 0.00 | 95 | 1011.9 |
| 20260509091554 | 12 | 112 | 1.6 | 0.0 | 0.00 | 0.00 | 0.00 | 95 | 1011.9 |
| 20260509091051 | 12 | 112 | 1.6 | 0.0 | 0.00 | 0.00 | 0.00 | 95 | 1012.1 |
| 20260509090552 | 12 | 151 | 0.0 | 0.0 | 0.00 | 0.00 | 0.00 | 95 | 1012.1 |
| 20260509090050 | 12 | 111 | 0.0 | 0.0 | 0.00 | 0.00 | 0.00 | 95 | 1012.1 |
| 20260509085550 | 12 | 111 | 0.0 | 0.0 | 0.00 | 0.00 | 0.00 | 95 | 1012.2 |
| 20260509085054 | 12 | 111 | 0.0 | 0.0 | 0.00 | 0.00 | 0.00 | 95 | 1012.2 |
| 20260509084601 | 12 | 111 | 0.0 | 0.0 | 0.00 | 0.00 | 0.00 | 95 | 1012.2 |
| 20260509084050 | 12 | 111 | 3.2 | 0.0 | 0.00 | 0.00 | 0.00 | 95 | 1012.2 |
| 20260509083550 | 12 | 120 | 3.2 | 0.0 | 0.00 | 0.00 | 0.00 | 95 | 1012.2 |
| 20260509083049 | 12 | 69 | 1.6 | 0.0 | 0.00 | 0.00 | 0.00 | 95 | 1012.2 |
| 20260509082549 | 12 | 149 | 0.0 | 0.0 | 0.00 | 0.00 | 0.00 | 95 | 1012.3 |
| 20260509082049 | 12 | 149 | 0.0 | 0.0 | 0.00 | 0.00 | 0.00 | 95 | 1012.3 |
| 20260509081553 | 12 | 143 | 0.0 | 0.0 | 0.00 | 0.00 | 0.00 | 95 | 1012.3 |
| 20260509081049 | 12 | 143 | 0.0 | 0.0 | 0.00 | 0.00 | 0.00 | 95 | 1012.4 |
| 20260509080547 | 12 | 143 | 0.0 | 0.0 | 0.00 | 0.00 | 0.00 | 95 | 1012.4 |
| 20260509080051 | 12 | 143 | 0.0 | 0.0 | 0.00 | 0.00 | 0.00 | 95 | 1012.4 |
| 20260509075547 | 12 | 143 | 0.0 | 0.0 | 0.00 | 0.00 | 0.00 | 95 | 1012.7 |
| 20260509075046 | 12 | 143 | 0.0 | 0.0 | 0.00 | 0.00 | 0.00 | 95 | 1012.7 |
| 20260509074546 | 12 | 143 | 0.0 | 0.0 | 0.00 | 0.00 | 0.00 | 95 | 1012.7 |
| 20260509074046 | 12 | 143 | 0.0 | 0.0 | 0.00 | 0.00 | 0.00 | 95 | 1012.7 |
| 20260509073546 | 12 | 143 | 0.0 | 0.0 | 0.00 | 0.00 | 0.00 | 95 | 1012.7 |
| 20260509073047 | 12 | 143 | 1.6 | 0.0 | 0.00 | 0.00 | 0.00 | 95 | 1012.7 |
| 20260509072548 | 12 | 143 | 0.0 | 0.0 | 0.00 | 0.00 | 0.00 | 95 | 1012.7 |
| 20260509072044 | 12 | 143 | 0.0 | 0.0 | 0.00 | 0.00 | 0.00 | 95 | 1012.7 |
| 20260509071548 | 12 | 143 | 0.0 | 0.0 | 0.00 | 0.00 | 0.00 | 95 | 1012.7 |
| 20260509071044 | 12 | 143 | 0.0 | 0.0 | 0.00 | 0.00 | 0.00 | 95 | 1012.9 |
| 20260509070546 | 12 | 143 | 0.0 | 0.0 | 0.00 | 0.00 | 0.00 | 95 | 1012.9 |
| 20260509070049 | 12 | 143 | 0.0 | 0.0 | 0.00 | 0.00 | 0.00 | 95 | 1012.9 |
| 20260509065542 | 12 | 143 | 0.0 | 0.0 | 0.00 | 0.00 | 0.00 | 95 | 1012.9 |
| 20260509065043 | 12 | 143 | 1.6 | 0.0 | 0.00 | 0.00 | 0.00 | 95 | 1012.9 |
| 20260509064554 | 12 | 143 | 1.6 | 0.0 | 0.00 | 0.00 | 0.00 | 95 | 1012.9 |
| 20260509064041 | 12 | 170 | 0.0 | 0.0 | 0.00 | 0.00 | 0.00 | 95 | 1013.0 |
| 20260509063541 | 12 | 170 | 1.6 | 0.0 | 0.00 | 0.00 | 0.00 | 95 | 1013.0 |
| 20260509063042 | 12 | 170 | 1.6 | 0.0 | 0.00 | 0.00 | 0.00 | 95 | 1013.0 |
| 20260509062542 | 12 | 167 | 1.6 | 0.0 | 0.00 | 0.00 | 0.00 | 95 | 1013.2 |
| 20260509062042 | 12 | 171 | 1.6 | 0.0 | 0.00 | 0.00 | 0.00 | 95 | 1013.2 |
| 20260509061551 | 12 | 180 | 1.6 | 0.0 | 0.00 | 0.00 | 0.00 | 95 | 1013.2 |
| 20260509061042 | 12 | 159 | 1.6 | 0.0 | 0.00 | 0.00 | 0.00 | 95 | 1013.2 |
| 20260509060541 | 12 | 154 | 1.6 | 0.0 | 0.00 | 0.00 | 0.00 | 95 | 1013.2 |
| 20260509060042 | 12 | 183 | 1.6 | 0.0 | 0.00 | 0.00 | 0.00 | 95 | 1013.2 |
| 20260509055540 | 12 | 183 | 1.6 | 0.0 | 0.00 | 0.00 | 0.00 | 95 | 1013.2 |
| 20260509055040 | 12 | 156 | 1.6 | 0.0 | 0.00 | 0.00 | 0.00 | 95 | 1013.2 |
| 20260509054546 | 12 | 195 | 1.6 | 0.0 | 0.00 | 0.00 | 0.00 | 95 | 1013.2 |
| 20260509054040 | 12 | 171 | 1.6 | 0.0 | 0.00 | 0.00 | 0.00 | 95 | 1013.1 |
| 20260509053541 | 12 | 165 | 1.6 | 0.0 | 0.00 | 0.00 | 0.00 | 95 | 1013.1 |
| 20260509053040 | 12 | 182 | 1.6 | 0.0 | 0.00 | 0.00 | 0.00 | 95 | 1013.1 |
| 20260509052542 | 12 | 180 | 1.6 | 0.0 | 0.00 | 0.00 | 0.00 | 95 | 1013.1 |
| 20260509052040 | 12 | 178 | 1.6 | 0.0 | 0.00 | 0.00 | 0.00 | 95 | 1013.1 |
| 20260509051542 | 12 | 228 | 1.6 | 0.0 | 0.00 | 0.00 | 0.00 | 95 | 1013.1 |
| 20260509051040 | 12 | 194 | 1.6 | 0.0 | 0.00 | 0.00 | 0.00 | 95 | 1013.0 |
| 20260509050543 | 12 | 236 | 1.6 | 0.0 | 0.00 | 0.00 | 0.00 | 95 | 1013.0 |
| 20260509050040 | 12 | 166 | 1.6 | 0.0 | 0.00 | 0.00 | 0.00 | 95 | 1013.0 |
| 20260509045539 | 12 | 198 | 1.6 | 0.0 | 0.00 | 0.00 | 0.00 | 95 | 1013.0 |
| 20260509045039 | 12 | 180 | 0.0 | 0.0 | 0.00 | 0.00 | 0.00 | 95 | 1013.0 |
| 20260509044539 | 12 | 202 | 0.0 | 0.0 | 0.00 | 0.00 | 0.00 | 95 | 1013.0 |
| 20260509044039 | 12 | 214 | 0.0 | 0.0 | 0.00 | 0.00 | 0.00 | 94 | 1013.0 |
| 20260509043542 | 12 | 214 | 0.0 | 0.0 | 0.00 | 0.00 | 0.00 | 94 | 1013.0 |
| 20260509043039 | 12 | 216 | 1.6 | 0.0 | 0.00 | 0.00 | 0.00 | 94 | 1013.0 |
| 20260509042538 | 12 | 202 | 3.2 | 0.0 | 0.00 | 0.00 | 0.00 | 94 | 1012.9 |
| 20260509042038 | 12 | 172 | 3.2 | 0.0 | 0.00 | 0.00 | 0.00 | 94 | 1012.9 |
| 20260509041538 | 12 | 194 | 1.6 | 0.0 | 0.00 | 0.00 | 0.00 | 94 | 1012.9 |
| 20260509041039 | 12 | 221 | 1.6 | 0.0 | 0.00 | 0.00 | 0.00 | 94 | 1012.8 |
| 20260509040538 | 12 | 205 | 3.2 | 0.0 | 0.00 | 0.00 | 0.00 | 94 | 1012.8 |
| 20260509040042 | 12 | 216 | 3.2 | 0.0 | 0.00 | 0.00 | 0.00 | 94 | 1012.8 |
| 20260509035539 | 12 | 186 | 1.6 | 0.0 | 0.00 | 0.00 | 0.00 | 94 | 1012.7 |
| 20260509035038 | 12 | 162 | 3.2 | 0.0 | 0.00 | 0.00 | 0.00 | 94 | 1012.7 |
| 20260509034539 | 12 | 180 | 3.2 | 0.0 | 0.00 | 0.00 | 0.00 | 94 | 1012.7 |
| 20260509034036 | 12 | 171 | 3.2 | 0.0 | 0.00 | 0.00 | 0.00 | 94 | 1012.4 |
| 20260509033540 | 12 | 200 | 1.6 | 0.0 | 0.00 | 0.00 | 0.00 | 94 | 1012.4 |
| 20260509033037 | 13 | 191 | 1.6 | 0.0 | 0.00 | 0.00 | 0.00 | 94 | 1012.4 |
| 20260509032538 | 13 | 227 | 3.2 | 0.0 | 0.00 | 0.00 | 0.00 | 94 | 1012.4 |
| 20260509032037 | 13 | 180 | 3.2 | 0.0 | 0.00 | 0.00 | 0.00 | 94 | 1012.4 |
| 20260509031543 | 13 | 212 | 3.2 | 0.0 | 0.00 | 0.00 | 0.00 | 94 | 1012.4 |
| 20260509031037 | 13 | 193 | 3.2 | 0.0 | 0.00 | 0.00 | 0.00 | 94 | 1012.3 |
| 20260509030536 | 13 | 200 | 3.2 | 0.0 | 0.00 | 0.00 | 0.00 | 94 | 1012.3 |
| 20260509030036 | 13 | 198 | 1.6 | 0.0 | 0.00 | 0.00 | 0.00 | 94 | 1012.3 |
| 20260509025535 | 13 | 196 | 1.6 | 0.0 | 0.00 | 0.00 | 0.00 | 94 | 1012.2 |
| 20260509025039 | 13 | 188 | 1.6 | 0.0 | 0.00 | 0.00 | 0.00 | 94 | 1012.2 |
| 20260509024535 | 13 | 187 | 3.2 | 0.0 | 0.00 | 0.00 | 0.00 | 94 | 1012.2 |
| 20260509024036 | 13 | 186 | 3.2 | 0.0 | 0.00 | 0.00 | 0.00 | 94 | 1012.1 |
| 20260509023536 | 13 | 177 | 3.2 | 0.0 | 0.00 | 0.00 | 0.00 | 94 | 1012.1 |
| 20260509023036 | 13 | 229 | 1.6 | 0.0 | 0.00 | 0.00 | 0.00 | 94 | 1012.1 |
| 20260509022535 | 13 | 197 | 3.2 | 0.0 | 0.00 | 0.00 | 0.00 | 94 | 1011.9 |
| 20260509022034 | 13 | 229 | 3.2 | 0.0 | 0.00 | 0.00 | 0.00 | 94 | 1011.9 |
| 20260509021535 | 13 | 182 | 4.8 | 0.0 | 0.00 | 0.00 | 0.00 | 93 | 1011.9 |
| 20260509021037 | 13 | 202 | 4.8 | 0.0 | 0.00 | 0.00 | 0.00 | 93 | 1011.9 |
| 20260509020534 | 13 | 176 | 4.8 | 0.0 | 0.00 | 0.00 | 0.00 | 93 | 1011.9 |
| 20260509020033 | 13 | 247 | 6.4 | 0.0 | 0.00 | 0.00 | 0.00 | 93 | 1011.9 |
| 20260509015533 | 13 | 165 | 6.4 | 0.0 | 0.00 | 0.00 | 0.00 | 93 | 1011.8 |
| 20260509015034 | 14 | 211 | 4.8 | 0.0 | 0.00 | 0.00 | 0.00 | 93 | 1011.8 |
| 20260509014540 | 14 | 198 | 4.8 | 0.0 | 0.00 | 0.00 | 0.00 | 92 | 1011.8 |
| 20260509014033 | 14 | 191 | 4.8 | 0.0 | 0.00 | 0.00 | 0.00 | 93 | 1011.8 |
| 20260509013533 | 14 | 202 | 3.2 | 0.0 | 0.00 | 0.00 | 0.00 | 92 | 1011.8 |
| 20260509013036 | 14 | 279 | 3.2 | 0.0 | 0.00 | 0.00 | 0.00 | 92 | 1011.8 |
| 20260509012533 | 15 | 196 | 3.2 | 0.0 | 0.00 | 0.00 | 0.00 | 92 | 1011.9 |
| 20260509012034 | 15 | 209 | 3.2 | 0.0 | 0.00 | 0.00 | 0.00 | 92 | 1011.9 |
| 20260509011533 | 15 | 242 | 4.8 | 0.0 | 0.00 | 0.00 | 0.00 | 92 | 1011.9 |
| 20260509011032 | 15 | 171 | 6.4 | 0.0 | 0.00 | 0.00 | 0.00 | 92 | 1011.8 |
| 20260509010532 | 15 | 206 | 4.8 | 0.0 | 0.00 | 0.00 | 0.00 | 92 | 1011.8 |
| 20260509010038 | 15 | 166 | 4.8 | 0.0 | 0.00 | 0.00 | 0.00 | 91 | 1011.8 |
| 20260509005533 | 15 | 210 | 4.8 | 0.0 | 0.00 | 0.00 | 0.00 | 91 | 1011.8 |
| 20260509005033 | 15 | 186 | 3.2 | 0.0 | 0.00 | 0.00 | 0.00 | 91 | 1011.8 |
| 20260509004533 | 15 | 162 | 4.8 | 0.0 | 0.00 | 0.00 | 0.00 | 90 | 1011.8 |
| 20260509004032 | 15 | 170 | 4.8 | 0.0 | 0.00 | 0.00 | 0.00 | 89 | 1012.0 |
| 20260509003532 | 15 | 215 | 4.8 | 0.0 | 0.00 | 0.00 | 0.00 | 89 | 1012.0 |
| 20260509003031 | 16 | 185 | 4.8 | 0.0 | 0.00 | 0.00 | 0.00 | 89 | 1012.0 |
| 20260509002530 | 16 | 240 | 6.4 | 0.0 | 0.00 | 0.00 | 0.00 | 88 | 1012.0 |
| 20260509002030 | 16 | 144 | 8.0 | 0.0 | 0.00 | 0.00 | 0.00 | 86 | 1012.0 |
| 20260509001531 | 16 | 211 | 8.0 | 0.0 | 0.00 | 0.00 | 0.00 | 85 | 1012.0 |
| 20260509001030 | 17 | 211 | 6.4 | 0.0 | 0.00 | 0.00 | 0.00 | 84 | 1011.9 |
| 20260509000530 | 17 | 172 | 6.4 | 0.0 | 0.00 | 0.00 | 0.00 | 84 | 1011.9 |
| 20260509000030 | 17 | 199 | 6.4 | 0.0 | 0.00 | 0.00 | 0.00 | 84 | 1011.9 |
| 20260508235531 | 17 | 198 | 6.4 | 0.0 | 0.00 | 0.00 | 0.00 | 84 | 1011.9 |
| 20260508235031 | 17 | 215 | 4.8 | 0.0 | 0.00 | 0.00 | 0.00 | 83 | 1011.9 |
| 20260508234529 | 17 | 236 | 4.8 | 0.0 | 0.00 | 0.00 | 0.00 | 83 | 1011.9 |
| 20260508234030 | 17 | 162 | 4.8 | 0.0 | 0.00 | 0.00 | 0.00 | 84 | 1012.0 |
| 20260508233529 | 17 | 254 | 4.8 | 0.0 | 0.00 | 0.00 | 0.00 | 83 | 1012.0 |
| 20260508233029 | 17 | 204 | 4.8 | 0.0 | 0.00 | 0.00 | 0.00 | 83 | 1012.0 |
| 20260508232528 | 17 | 189 | 4.8 | 0.0 | 0.00 | 0.00 | 0.00 | 83 | 1012.0 |
| 20260508232028 | 17 | 173 | 6.4 | 0.0 | 0.00 | 0.00 | 0.00 | 82 | 1012.0 |
| 20260508231528 | 18 | 158 | 4.8 | 0.0 | 0.00 | 0.00 | 0.00 | 81 | 1012.0 |
| 20260508231027 | 18 | 213 | 4.8 | 0.0 | 0.00 | 0.00 | 0.00 | 83 | 1012.3 |
| 20260508230526 | 17 | 207 | 4.8 | 0.0 | 0.00 | 0.00 | 0.00 | 82 | 1012.3 |
| 20260508230025 | 17 | 245 | 4.8 | 0.0 | 0.00 | 0.00 | 0.00 | 82 | 1012.3 |
| 20260508225528 | 17 | 250 | 3.2 | 0.0 | 0.00 | 0.00 | 0.00 | 82 | 1012.3 |
| 20260508225025 | 17 | 178 | 3.2 | 0.0 | 0.00 | 0.00 | 0.00 | 83 | 1012.3 |
| 20260508224524 | 17 | 215 | 4.8 | 0.0 | 0.00 | 0.00 | 0.00 | 83 | 1012.3 |
| 20260508224023 | 17 | 217 | 4.8 | 0.0 | 0.00 | 0.00 | 0.00 | 84 | 1012.6 |
| 20260508223523 | 17 | 194 | 4.8 | 0.0 | 0.00 | 0.00 | 0.00 | 84 | 1012.6 |
| 20260508223029 | 17 | 194 | 4.8 | 0.0 | 0.00 | 0.00 | 0.00 | 85 | 1012.6 |
| 20260508222522 | 17 | 198 | 4.8 | 0.0 | 0.00 | 0.00 | 0.00 | 86 | 1012.8 |
| 20260508222024 | 17 | 175 | 4.8 | 0.0 | 0.00 | 0.00 | 0.00 | 86 | 1012.8 |
| 20260508221521 | 17 | 183 | 4.8 | 0.0 | 0.00 | 0.00 | 0.00 | 87 | 1012.8 |
| 20260508221021 | 17 | 200 | 4.8 | 0.0 | 0.00 | 0.00 | 0.00 | 86 | 1013.1 |
| 20260508220523 | 17 | 188 | 4.8 | 0.0 | 0.00 | 0.00 | 0.00 | 86 | 1013.1 |
| 20260508220100 | 17 | 172 | 4.8 | 0.0 | 0.00 | 0.00 | 0.00 | 87 | 1013.1 |
| 20260508215520 | 17 | 173 | 6.4 | 0.0 | 0.00 | 0.00 | 0.00 | 87 | 1013.1 |
| 20260508215020 | 17 | 165 | 6.4 | 0.0 | 0.00 | 0.00 | 0.00 | 85 | 1013.1 |
| 20260508214520 | 17 | 190 | 4.8 | 0.0 | 0.00 | 0.00 | 0.00 | 87 | 1013.1 |
| 20260508214018 | 16 | 174 | 6.4 | 0.0 | 0.00 | 0.00 | 0.00 | 86 | 1013.3 |
| 20260508213517 | 16 | 172 | 4.8 | 0.0 | 0.00 | 0.00 | 0.00 | 87 | 1013.3 |
| 20260508213017 | 16 | 360 | 4.8 | 0.0 | 0.00 | 0.00 | 0.00 | 87 | 1013.3 |
| 20260508212518 | 16 | 178 | 6.4 | 0.0 | 0.00 | 0.00 | 0.00 | 86 | 1013.6 |
| 20260508212017 | 16 | 152 | 6.4 | 0.0 | 0.00 | 0.00 | 0.00 | 88 | 1013.6 |
| 20260508211522 | 16 | 199 | 6.4 | 0.0 | 0.00 | 0.00 | 0.00 | 88 | 1013.6 |
| 20260508211016 | 16 | 169 | 6.4 | 0.0 | 0.00 | 0.00 | 0.00 | 87 | 1013.8 |
| 20260508210516 | 16 | 148 | 4.8 | 0.0 | 0.00 | 0.00 | 0.00 | 88 | 1013.8 |
| 20260508210015 | 16 | 148 | 4.8 | 0.0 | 0.00 | 0.00 | 0.00 | 88 | 1013.8 |
| 20260508205514 | 16 | 173 | 4.8 | 0.0 | 0.00 | 0.00 | 0.00 | 88 | 1013.8 |
| 20260508205014 | 16 | 184 | 4.8 | 0.0 | 0.00 | 0.00 | 0.00 | 89 | 1013.8 |
| 20260508204513 | 16 | 225 | 4.8 | 0.0 | 0.00 | 0.00 | 0.00 | 91 | 1013.8 |
| 20260508204017 | 16 | 182 | 6.4 | 0.0 | 0.00 | 0.00 | 0.00 | 90 | 1013.8 |
| 20260508203512 | 16 | 150 | 4.8 | 0.0 | 0.00 | 0.00 | 0.00 | 90 | 1013.8 |
| 20260508203012 | 16 | 181 | 4.8 | 0.0 | 0.00 | 0.00 | 0.00 | 90 | 1013.8 |
| 20260508202513 | 16 | 192 | 6.4 | 0.0 | 0.00 | 0.00 | 0.00 | 91 | 1014.0 |
| 20260508202011 | 16 | 169 | 6.4 | 0.0 | 0.00 | 0.00 | 0.00 | 91 | 1014.0 |
| 20260508201512 | 16 | 186 | 4.8 | 0.0 | 0.00 | 0.00 | 0.00 | 91 | 1014.0 |
| 20260508201011 | 15 | 149 | 4.8 | 0.0 | 0.00 | 0.00 | 0.00 | 92 | 1014.2 |
| 20260508200511 | 15 | 115 | 4.8 | 0.0 | 0.00 | 0.00 | 0.00 | 91 | 1014.2 |
| 20260508200010 | 16 | 155 | 4.8 | 0.0 | 0.00 | 0.00 | 0.00 | 92 | 1014.2 |
| 20260508195510 | 16 | 200 | 4.8 | 0.0 | 0.00 | 0.00 | 0.00 | 93 | 1014.3 |
| 20260508195008 | 15 | 211 | 4.8 | 0.0 | 0.00 | 0.00 | 0.00 | 94 | 1014.3 |
| 20260508194508 | 15 | 166 | 4.8 | 0.0 | 0.00 | 0.00 | 0.00 | 94 | 1014.3 |
| 20260508194008 | 15 | 206 | 4.8 | 0.0 | 0.00 | 0.00 | 0.00 | 94 | 1014.4 |
| 20260508193506 | 15 | 192 | 4.8 | 0.0 | 0.00 | 0.00 | 0.00 | 95 | 1014.4 |
| 20260508193005 | 15 | 165 | 4.8 | 0.0 | 0.00 | 0.00 | 0.00 | 95 | 1014.4 |
| 20260508192504 | 15 | 228 | 4.8 | 0.0 | 0.00 | 0.00 | 0.00 | 95 | 1014.5 |
| 20260508192004 | 15 | 146 | 3.2 | 0.0 | 0.00 | 0.00 | 0.00 | 96 | 1014.5 |
| 20260508191505 | 14 | 183 | 3.2 | 0.0 | 0.00 | 0.00 | 0.00 | 96 | 1014.8 |
| 20260508191002 | 14 | 201 | 3.2 | 0.0 | 0.00 | 0.00 | 0.00 | 96 | 1014.8 |
| 20260508190504 | 14 | 149 | 3.2 | 0.0 | 0.00 | 0.00 | 0.00 | 96 | 1014.8 |
| 20260508190108 | 13 | 204 | 3.2 | 0.0 | 0.00 | 0.00 | 0.00 | 96 | 1014.8 |
| 20260508185559 | 13 | 209 | 3.2 | 0.0 | 0.00 | 0.00 | 0.00 | 95 | 1015.0 |
| 20260508185059 | 13 | 200 | 3.2 | 0.0 | 0.00 | 0.00 | 0.00 | 96 | 1015.0 |
| 20260508184558 | 13 | 219 | 3.2 | 0.0 | 0.00 | 0.00 | 0.00 | 96 | 1015.0 |
| 20260508184057 | 13 | 185 | 3.2 | 0.0 | 0.00 | 0.00 | 0.00 | 96 | 1015.0 |
| 20260508183557 | 13 | 178 | 3.2 | 0.0 | 0.00 | 0.00 | 0.00 | 96 | 1015.0 |
| 20260508183057 | 13 | 195 | 3.2 | 0.0 | 0.00 | 0.00 | 0.00 | 96 | 1015.0 |
| 20260508182556 | 13 | 161 | 3.2 | 0.0 | 0.00 | 0.00 | 0.00 | 96 | 1015.0 |
| 20260508182057 | 13 | 204 | 3.2 | 0.0 | 0.00 | 0.00 | 0.00 | 96 | 1015.0 |
| 20260508181608 | 13 | 207 | 3.2 | 0.0 | 0.00 | 0.00 | 0.00 | 96 | 1015.0 |
| 20260508181056 | 13 | 158 | 3.2 | 0.0 | 0.00 | 0.00 | 0.00 | 96 | 1015.0 |
| 20260508180556 | 13 | 203 | 3.2 | 0.0 | 0.00 | 0.00 | 0.00 | 96 | 1015.0 |
| 20260508180105 | 13 | 155 | 3.2 | 0.0 | 0.00 | 0.00 | 0.00 | 96 | 1015.0 |
| 20260508175555 | 13 | 173 | 3.2 | 0.0 | 0.00 | 0.00 | 0.00 | 96 | 1015.1 |
| 20260508175055 | 13 | 236 | 3.2 | 0.0 | 0.00 | 0.00 | 0.00 | 96 | 1015.1 |
| 20260508174609 | 13 | 84 | 1.6 | 0.0 | 0.00 | 0.00 | 0.00 | 96 | 1015.1 |
| 20260508174056 | 13 | 42 | 1.6 | 0.0 | 0.00 | 0.00 | 0.00 | 96 | 1015.2 |
| 20260508173554 | 13 | 53 | 1.6 | 0.0 | 0.00 | 0.00 | 0.00 | 96 | 1015.2 |
| 20260508173055 | 13 | 45 | 1.6 | 0.0 | 0.00 | 0.00 | 0.00 | 96 | 1015.2 |
| 20260508172554 | 13 | 47 | 1.6 | 0.0 | 0.00 | 0.00 | 0.00 | 96 | 1015.3 |
| 20260508172053 | 13 | 72 | 1.6 | 0.0 | 0.00 | 0.00 | 0.00 | 96 | 1015.3 |
| 20260508171553 | 13 | 50 | 3.2 | 0.0 | 0.00 | 0.00 | 0.00 | 96 | 1015.3 |
| 20260508171056 | 13 | 355 | 3.2 | 0.0 | 0.00 | 0.00 | 0.00 | 96 | 1015.1 |
| 20260508170552 | 13 | 96 | 3.2 | 0.0 | 0.00 | 0.00 | 0.00 | 96 | 1015.1 |
| 20260508170054 | 13 | 82 | 3.2 | 0.0 | 0.00 | 0.00 | 0.00 | 96 | 1015.1 |
| 20260508165550 | 13 | 94 | 3.2 | 0.0 | 0.00 | 0.00 | 0.00 | 96 | 1015.1 |
| 20260508165050 | 13 | 105 | 3.2 | 0.0 | 0.00 | 0.00 | 0.00 | 96 | 1015.1 |
| 20260508164551 | 13 | 150 | 3.2 | 0.0 | 0.00 | 0.00 | 0.00 | 96 | 1015.1 |
| 20260508164051 | 13 | 106 | 3.2 | 0.0 | 0.00 | 0.00 | 0.00 | 96 | 1015.1 |
| 20260508163553 | 12 | 150 | 3.2 | 0.0 | 0.00 | 0.00 | 0.00 | 96 | 1015.1 |
| 20260508163050 | 12 | 67 | 4.8 | 0.0 | 0.00 | 0.00 | 0.00 | 96 | 1015.1 |
| 20260508162550 | 12 | 100 | 3.2 | 0.0 | 0.00 | 0.00 | 0.00 | 96 | 1015.1 |
| 20260508162050 | 12 | 94 | 3.2 | 0.0 | 0.00 | 0.00 | 0.00 | 96 | 1015.1 |
| 20260508161550 | 12 | 63 | 3.2 | 0.0 | 0.00 | 0.00 | 0.00 | 96 | 1015.1 |
| 20260508161049 | 12 | 85 | 4.8 | 0.0 | 0.00 | 0.00 | 0.00 | 96 | 1015.1 |
| 20260508160553 | 12 | 5 | 4.8 | 0.0 | 0.00 | 0.00 | 0.00 | 96 | 1015.1 |
| 20260508160048 | 12 | 71 | 3.2 | 0.0 | 0.00 | 0.00 | 0.00 | 96 | 1015.1 |
| 20260508155549 | 12 | 82 | 3.2 | 0.0 | 0.00 | 0.00 | 0.00 | 96 | 1015.0 |
| 20260508155048 | 12 | 73 | 3.2 | 0.0 | 0.00 | 0.00 | 0.00 | 96 | 1015.0 |
| 20260508154549 | 12 | 76 | 3.2 | 0.0 | 0.00 | 0.00 | 0.00 | 96 | 1015.0 |